Time,TemperatureF,DewpointF,PressureIn,WindDirection,WindDirectionDegrees,WindSpeedMPH,WindSpeedGustMPH,Humidity,HourlyPrecipIn,Conditions,Clouds,dailyrainin,SoftwareType,DateUTC
2013-01-17 08:00:00,10.2,4.7,30.83,SSE,158,0.0,0.0,78,0.00,,---,0.00,VWS V14.01,2013-01-17 15:00:00,
2013-01-17 08:13:00,10.2,4.7,30.83,SSE,158,0.0,0.0,78,0.00,,---,0.00,VWS V14.01,2013-01-17 15:13:00,
2013-01-17 08:18:00,9.6,3.6,30.81,SSE,165,0.0,0.0,76,0.00,,---,0.00,VWS V14.01,2013-01-17 15:18:00,
2013-01-17 08:20:00,9.6,3.3,30.82,SSE,165,0.0,0.0,75,0.00,,---,0.00,VWS V14.01,2013-01-17 15:20:00,
2013-01-17 08:25:00,10.0,4.0,30.82,SSE,165,0.0,0.0,76,0.00,,---,0.00,VWS V14.01,2013-01-17 15:25:00,
2013-01-17 08:30:00,11.1,5.0,30.82,SSE,165,0.0,0.0,76,0.00,,---,0.00,VWS V14.01,2013-01-17 15:30:00,
2013-01-17 08:35:00,11.6,4.9,30.80,SSE,165,0.0,0.0,74,0.00,,---,0.00,VWS V14.01,2013-01-17 15:35:00,
2013-01-17 08:40:00,11.7,4.7,30.80,SSE,165,0.0,2.0,73,0.00,,---,0.00,VWS V14.01,2013-01-17 15:40:00,
2013-01-17 08:45:00,11.3,4.3,30.83,SSE,165,1.0,2.0,73,0.00,,---,0.00,VWS V14.01,2013-01-17 15:45:00,
2013-01-17 08:50:00,11.1,4.4,30.83,SSE,165,0.0,2.0,74,0.00,,---,0.00,VWS V14.01,2013-01-17 15:50:00,
2013-01-17 08:55:00,11.4,5.0,30.83,SSE,165,0.0,0.0,75,0.00,,---,0.00,VWS V14.01,2013-01-17 15:55:00,
2013-01-17 09:00:00,12.2,6.4,30.81,SSE,165,0.0,0.0,77,0.00,,---,0.00,VWS V14.01,2013-01-17 16:00:00,
2013-01-17 09:05:00,13.1,7.3,30.81,SSE,165,0.0,0.0,77,0.00,,---,0.00,VWS V14.01,2013-01-17 16:05:00,
2013-01-17 09:10:00,13.9,7.8,30.83,SSE,165,0.0,0.0,76,0.00,,---,0.00,VWS V14.01,2013-01-17 16:10:00,
2013-01-17 09:15:00,13.9,7.2,30.84,SSE,165,0.0,1.0,74,0.00,,---,0.00,VWS V14.01,2013-01-17 16:15:00,
2013-01-17 09:20:00,12.9,5.6,30.84,SSE,165,0.0,1.0,72,0.00,,---,0.00,VWS V14.01,2013-01-17 16:20:00,
2013-01-17 09:25:00,13.0,6.3,30.84,SSE,165,0.0,0.0,74,0.00,,---,0.00,VWS V14.01,2013-01-17 16:25:00,
2013-01-17 09:30:00,13.8,7.1,30.84,SSE,165,0.0,0.0,74,0.00,,---,0.00,VWS V14.01,2013-01-17 16:30:00,
2013-01-17 09:36:00,14.8,8.0,30.82,SSE,165,0.0,0.0,74,0.00,,---,0.00,VWS V14.01,2013-01-17 16:36:00,
2013-01-17 09:41:00,16.1,9.3,30.82,SSE,165,0.0,1.0,74,0.00,,---,0.00,VWS V14.01,2013-01-17 16:41:00,
2013-01-17 09:46:00,17.2,9.7,30.80,SSE,165,0.0,0.0,72,0.00,,---,0.00,VWS V14.01,2013-01-17 16:46:00,
2013-01-17 09:51:00,18.1,10.3,30.80,SSE,165,0.0,0.0,71,0.00,,---,0.00,VWS V14.01,2013-01-17 16:51:00,
2013-01-17 09:56:00,19.0,10.5,30.78,SSE,165,0.0,0.0,69,0.00,,---,0.00,VWS V14.01,2013-01-17 16:56:00,
2013-01-17 10:01:00,19.5,10.7,30.78,SSE,165,0.0,0.0,68,0.00,,---,0.00,VWS V14.01,2013-01-17 17:01:00,
2013-01-17 10:06:00,19.9,10.7,30.80,SSE,165,0.0,0.0,67,0.00,,---,0.00,VWS V14.01,2013-01-17 17:06:00,
2013-01-17 10:11:00,20.5,11.0,30.78,SSE,165,0.0,0.0,66,0.00,,---,0.00,VWS V14.01,2013-01-17 17:11:00,
2013-01-17 10:16:00,21.1,11.9,30.77,SSE,165,0.0,0.0,67,0.00,,---,0.00,VWS V14.01,2013-01-17 17:16:00,
2013-01-17 10:21:00,21.8,12.5,30.77,SSE,165,0.0,0.0,67,0.00,,---,0.00,VWS V14.01,2013-01-17 17:21:00,
2013-01-17 10:26:00,22.5,13.2,30.75,SSE,165,0.0,0.0,67,0.00,,---,0.00,VWS V14.01,2013-01-17 17:26:00,
2013-01-17 10:31:00,23.2,13.2,30.74,SSE,165,0.0,1.0,65,0.00,,---,0.00,VWS V14.01,2013-01-17 17:31:00,
2013-01-17 10:35:00,23.8,13.8,30.74,SSE,165,1.0,1.0,65,0.00,,---,0.00,VWS V14.01,2013-01-17 17:35:00,
2013-01-17 10:40:00,23.6,12.9,30.74,SSE,165,2.0,2.0,63,0.00,,---,0.00,VWS V14.01,2013-01-17 17:40:00,
2013-01-17 10:45:00,23.8,13.1,30.74,SSE,165,1.0,3.0,63,0.00,,---,0.00,VWS V14.01,2013-01-17 17:45:00,
2013-01-17 10:50:00,24.5,13.7,30.73,SSE,165,0.0,3.0,63,0.00,,---,0.00,VWS V14.01,2013-01-17 17:50:00,
2013-01-17 10:55:00,25.6,14.8,30.71,SSE,165,2.0,2.0,63,0.00,,---,0.00,VWS V14.01,2013-01-17 17:55:00,
2013-01-17 11:00:00,26.2,15.0,30.71,SSE,165,2.0,3.0,62,0.00,,---,0.00,VWS V14.01,2013-01-17 18:00:00,
2013-01-17 11:05:00,26.5,14.9,30.70,SSE,165,1.0,5.0,61,0.00,,---,0.00,VWS V14.01,2013-01-17 18:05:00,
2013-01-17 11:10:00,27.2,15.9,30.68,SSE,165,2.0,2.0,62,0.00,,---,0.00,VWS V14.01,2013-01-17 18:10:00,
2013-01-17 11:15:00,27.6,15.2,30.68,SSE,165,5.0,5.0,59,0.00,,---,0.00,VWS V14.01,2013-01-17 18:15:00,
2013-01-17 11:20:00,27.7,15.6,30.68,SSE,165,0.0,0.0,60,0.00,,---,0.00,VWS V14.01,2013-01-17 18:20:00,
2013-01-17 11:25:00,28.6,16.1,30.65,SSE,165,4.0,4.0,59,0.00,,---,0.00,VWS V14.01,2013-01-17 18:25:00,
2013-01-17 11:30:00,29.6,17.0,30.65,SSE,165,0.0,0.0,59,0.00,,---,0.00,VWS V14.01,2013-01-17 18:30:00,
2013-01-17 11:35:00,30.5,17.1,30.62,SSE,165,0.0,0.0,57,0.00,,---,0.00,VWS V14.01,2013-01-17 18:35:00,
2013-01-17 11:40:00,31.3,17.0,30.62,SSE,165,0.0,1.0,55,0.00,,---,0.00,VWS V14.01,2013-01-17 18:40:00,
2013-01-17 11:46:00,31.8,17.5,30.62,SSE,165,0.0,0.0,55,0.00,,---,0.00,VWS V14.01,2013-01-17 18:46:00,
2013-01-17 11:51:00,32.7,17.9,30.59,SSE,165,2.0,4.0,54,0.00,,---,0.00,VWS V14.01,2013-01-17 18:51:00,
2013-01-17 11:56:00,33.2,18.4,30.59,SSE,165,0.0,0.0,54,0.00,,---,0.00,VWS V14.01,2013-01-17 18:56:00,
2013-01-17 12:01:00,33.8,18.5,30.59,SSE,165,0.0,0.0,53,0.00,,---,0.00,VWS V14.01,2013-01-17 19:01:00,
2013-01-17 12:06:00,34.6,18.3,30.58,SSE,165,3.0,4.0,51,0.00,,---,0.00,VWS V14.01,2013-01-17 19:06:00,
2013-01-17 12:11:00,34.8,18.5,30.58,SSE,165,0.0,4.0,51,0.00,,---,0.00,VWS V14.01,2013-01-17 19:11:00,
2013-01-17 12:16:00,35.2,18.9,30.57,SSE,165,0.0,0.0,51,0.00,,---,0.00,VWS V14.01,2013-01-17 19:16:00,
2013-01-17 12:21:00,35.7,19.4,30.57,SSE,165,0.0,0.0,51,0.00,,---,0.00,VWS V14.01,2013-01-17 19:21:00,
2013-01-17 12:26:00,36.2,18.9,30.57,SSE,165,0.0,0.0,49,0.00,,---,0.00,VWS V14.01,2013-01-17 19:26:00,
2013-01-17 12:31:00,35.9,19.1,30.56,SSE,166,0.0,0.0,50,0.00,,---,0.00,VWS V14.01,2013-01-17 19:31:00,
2013-01-17 12:36:00,36.0,19.2,30.56,SSE,165,2.0,3.0,50,0.00,,---,0.00,VWS V14.01,2013-01-17 19:36:00,
2013-01-17 12:41:00,36.4,20.0,30.55,SSE,166,5.0,5.0,51,0.00,,---,0.00,VWS V14.01,2013-01-17 19:41:00,
2013-01-17 12:46:00,36.3,19.9,30.55,SSE,168,2.0,6.0,51,0.00,,---,0.00,VWS V14.01,2013-01-17 19:46:00,
2013-01-17 12:51:00,36.3,19.9,30.54,South,169,5.0,5.0,51,0.00,,---,0.00,VWS V14.01,2013-01-17 19:51:00,
2013-01-17 12:56:00,36.3,19.5,30.54,South,171,1.0,4.0,50,0.00,,---,0.00,VWS V14.01,2013-01-17 19:56:00,
2013-01-17 13:01:00,36.7,19.4,30.51,South,171,0.0,0.0,49,0.00,,---,0.00,VWS V14.01,2013-01-17 20:01:00,
2013-01-17 13:06:00,36.9,19.5,30.50,South,171,0.0,0.0,49,0.00,,---,0.00,VWS V14.01,2013-01-17 20:06:00,
2013-01-17 13:11:00,37.4,20.0,30.49,South,171,5.0,5.0,49,0.00,,---,0.00,VWS V14.01,2013-01-17 20:11:00,
2013-01-17 13:16:00,37.5,20.1,30.49,South,171,5.0,5.0,49,0.00,,---,0.00,VWS V14.01,2013-01-17 20:16:00,
2013-01-17 13:21:00,37.2,19.3,30.49,South,172,5.0,5.0,48,0.00,,---,0.00,VWS V14.01,2013-01-17 20:21:00,
2013-01-17 13:26:00,36.5,19.6,30.49,South,172,1.0,2.0,50,0.00,,---,0.00,VWS V14.01,2013-01-17 20:26:00,
2013-01-17 13:31:00,36.8,19.9,30.48,South,173,0.0,3.0,50,0.00,,---,0.00,VWS V14.01,2013-01-17 20:31:00,
2013-01-17 13:36:00,37.8,20.4,30.48,South,172,1.0,4.0,49,0.00,,---,0.00,VWS V14.01,2013-01-17 20:36:00,
2013-01-17 13:41:00,38.1,20.2,30.48,South,173,0.0,4.0,48,0.00,,---,0.00,VWS V14.01,2013-01-17 20:41:00,
2013-01-17 13:46:00,38.3,20.8,30.48,South,172,0.0,2.0,49,0.00,,---,0.00,VWS V14.01,2013-01-17 20:46:00,
2013-01-17 13:51:00,38.9,21.4,30.46,South,173,0.0,2.0,49,0.00,,---,0.00,VWS V14.01,2013-01-17 20:51:00,
2013-01-17 13:56:00,39.0,21.0,30.45,South,172,5.0,6.0,48,0.00,,---,0.00,VWS V14.01,2013-01-17 20:56:00,
2013-01-17 14:01:00,37.8,19.9,30.47,South,173,2.0,4.0,48,0.00,,---,0.00,VWS V14.01,2013-01-17 21:01:00,
2013-01-17 14:06:00,37.3,20.4,30.47,South,173,4.0,5.0,50,0.00,,---,0.00,VWS V14.01,2013-01-17 21:06:00,
2013-01-17 14:11:00,37.0,20.6,30.51,South,172,0.0,3.0,51,0.00,,---,0.00,VWS V14.01,2013-01-17 21:11:00,
2013-01-17 14:16:00,37.7,20.8,30.50,South,173,1.0,2.0,50,0.00,,---,0.00,VWS V14.01,2013-01-17 21:16:00,
2013-01-17 14:21:00,38.6,20.1,30.50,South,172,0.0,0.0,47,0.00,,---,0.00,VWS V14.01,2013-01-17 21:21:00,
2013-01-17 14:26:00,39.2,19.7,30.49,South,173,0.0,1.0,45,0.00,,---,0.00,VWS V14.01,2013-01-17 21:26:00,
2013-01-17 14:31:00,39.6,21.0,30.48,South,172,0.0,2.0,47,0.00,,---,0.00,VWS V14.01,2013-01-17 21:31:00,
2013-01-17 14:36:00,39.0,20.5,30.48,South,173,0.0,1.0,47,0.00,,---,0.00,VWS V14.01,2013-01-17 21:36:00,
2013-01-17 14:42:00,38.8,21.8,30.48,South,172,0.0,1.0,50,0.00,,---,0.00,VWS V14.01,2013-01-17 21:42:00,
2013-01-17 14:47:00,38.4,20.9,30.50,South,172,0.0,1.0,49,0.00,,---,0.00,VWS V14.01,2013-01-17 21:47:00,
2013-01-17 14:52:00,38.6,21.6,30.48,South,172,2.0,4.0,50,0.00,,---,0.00,VWS V14.01,2013-01-17 21:52:00,
2013-01-17 14:57:00,37.6,21.1,30.50,South,170,1.0,3.0,51,0.00,,---,0.00,VWS V14.01,2013-01-17 21:57:00,
2013-01-17 15:02:00,37.4,20.5,30.51,South,170,2.0,4.0,50,0.00,,---,0.00,VWS V14.01,2013-01-17 22:02:00,
2013-01-17 15:07:00,37.5,20.1,30.49,South,170,0.0,1.0,49,0.00,,---,0.00,VWS V14.01,2013-01-17 22:07:00,
2013-01-17 15:12:00,37.8,20.4,30.49,South,170,0.0,1.0,49,0.00,,---,0.00,VWS V14.01,2013-01-17 22:12:00,
2013-01-17 15:17:00,38.1,19.7,30.49,South,169,0.0,1.0,47,0.00,,---,0.00,VWS V14.01,2013-01-17 22:17:00,
2013-01-17 15:22:00,38.5,20.5,30.49,South,170,0.0,0.0,48,0.00,,---,0.00,VWS V14.01,2013-01-17 22:22:00,
2013-01-17 15:27:00,38.6,20.1,30.49,South,170,0.0,1.0,47,0.00,,---,0.00,VWS V14.01,2013-01-17 22:27:00,
2013-01-17 15:32:00,38.8,19.8,30.49,South,170,0.0,1.0,46,0.00,,---,0.00,VWS V14.01,2013-01-17 22:32:00,
2013-01-17 15:37:00,39.2,20.2,30.49,South,170,0.0,1.0,46,0.00,,---,0.00,VWS V14.01,2013-01-17 22:37:00,
2013-01-17 15:42:00,38.0,20.1,30.49,South,169,2.0,4.0,48,0.00,,---,0.00,VWS V14.01,2013-01-17 22:42:00,
2013-01-17 15:47:00,37.0,20.6,30.51,South,170,0.0,0.0,51,0.00,,---,0.00,VWS V14.01,2013-01-17 22:47:00,
2013-01-17 15:52:00,37.2,20.3,30.51,South,170,0.0,0.0,50,0.00,,---,0.00,VWS V14.01,2013-01-17 22:52:00,
2013-01-17 15:57:00,37.8,20.8,30.49,South,170,0.0,0.0,50,0.00,,---,0.00,VWS V14.01,2013-01-17 22:57:00,
2013-01-17 16:02:00,38.8,20.8,30.49,South,170,1.0,1.0,48,0.00,,---,0.00,VWS V14.01,2013-01-17 23:02:00,
2013-01-17 16:07:00,39.6,21.0,30.49,South,169,0.0,0.0,47,0.00,,---,0.00,VWS V14.01,2013-01-17 23:07:00,
2013-01-17 16:12:00,38.8,21.3,30.50,South,170,0.0,0.0,49,0.00,,---,0.00,VWS V14.01,2013-01-17 23:12:00,
2013-01-17 16:17:00,37.7,21.2,30.51,South,170,0.0,0.0,51,0.00,,---,0.00,VWS V14.01,2013-01-17 23:17:00,
2013-01-17 16:22:00,37.2,21.2,30.52,South,169,0.0,0.0,52,0.00,,---,0.00,VWS V14.01,2013-01-17 23:22:00,
2013-01-17 16:27:00,37.3,21.3,30.52,South,170,0.0,0.0,52,0.00,,---,0.00,VWS V14.01,2013-01-17 23:27:00,
2013-01-17 16:32:00,36.8,21.3,30.53,South,169,0.0,0.0,53,0.00,,---,0.00,VWS V14.01,2013-01-17 23:32:00,
2013-01-17 16:37:00,36.7,20.8,30.53,South,170,0.0,0.0,52,0.00,,---,0.00,VWS V14.01,2013-01-17 23:37:00,
2013-01-17 16:42:00,36.1,20.2,30.53,South,170,0.0,0.0,52,0.00,,---,0.00,VWS V14.01,2013-01-17 23:42:00,
2013-01-17 16:47:00,34.7,19.8,30.55,South,170,0.0,0.0,54,0.00,,---,0.00,VWS V14.01,2013-01-17 23:47:00,
2013-01-17 16:52:00,33.4,19.4,30.55,South,169,0.0,0.0,56,0.00,,---,0.00,VWS V14.01,2013-01-17 23:52:00,
2013-01-17 16:57:00,32.5,19.4,30.57,South,170,0.0,0.0,58,0.00,,---,0.00,VWS V14.01,2013-01-17 23:57:00,
2013-01-17 17:02:00,31.6,18.9,30.57,South,170,0.0,0.0,59,0.00,,---,0.00,VWS V14.01,2013-01-18 00:02:00,
2013-01-17 17:07:00,30.9,19.0,30.61,South,169,0.0,0.0,61,0.00,,---,0.00,VWS V14.01,2013-01-18 00:07:00,
2013-01-17 17:12:00,30.3,18.5,30.61,South,170,0.0,0.0,61,0.00,,---,0.00,VWS V14.01,2013-01-18 00:12:00,
2013-01-17 17:17:00,29.3,17.5,30.63,South,169,0.0,0.0,61,0.00,,---,0.00,VWS V14.01,2013-01-18 00:17:00,
2013-01-17 17:22:00,28.6,17.6,30.63,South,170,0.0,0.0,63,0.00,,---,0.00,VWS V14.01,2013-01-18 00:22:00,
2013-01-17 17:28:00,28.5,18.2,30.63,South,169,0.0,2.0,65,0.00,,---,0.00,VWS V14.01,2013-01-18 00:28:00,
2013-01-17 17:33:00,28.9,18.3,30.63,South,170,0.0,1.0,64,0.00,,---,0.00,VWS V14.01,2013-01-18 00:33:00,
2013-01-17 17:38:00,28.8,17.8,30.64,South,170,2.0,2.0,63,0.00,,---,0.00,VWS V14.01,2013-01-18 00:38:00,
2013-01-17 17:43:00,28.1,17.5,30.63,South,169,0.0,2.0,64,0.00,,---,0.00,VWS V14.01,2013-01-18 00:43:00,
2013-01-17 17:48:00,27.3,17.1,30.65,South,170,1.0,3.0,65,0.00,,---,0.00,VWS V14.01,2013-01-18 00:48:00,
2013-01-17 17:53:00,26.5,16.3,30.66,South,170,0.0,4.0,65,0.00,,---,0.00,VWS V14.01,2013-01-18 00:53:00,
2013-01-17 17:58:00,25.7,15.9,30.65,South,169,0.0,0.0,66,0.00,,---,0.00,VWS V14.01,2013-01-18 00:58:00,
2013-01-17 18:03:00,25.3,15.9,30.67,South,170,1.0,2.0,67,0.00,,---,0.00,VWS V14.01,2013-01-18 01:03:00,
2013-01-17 18:08:00,25.3,15.9,30.65,South,169,0.0,4.0,67,0.00,,---,0.00,VWS V14.01,2013-01-18 01:08:00,
2013-01-17 18:13:00,25.2,15.4,30.66,South,170,0.0,2.0,66,0.00,,---,0.00,VWS V14.01,2013-01-18 01:13:00,
2013-01-17 18:18:00,24.9,15.2,30.66,South,169,0.0,1.0,66,0.00,,---,0.00,VWS V14.01,2013-01-18 01:18:00,
2013-01-17 18:23:00,24.7,15.0,30.66,South,170,0.0,1.0,66,0.00,,---,0.00,VWS V14.01,2013-01-18 01:23:00,
2013-01-17 18:28:00,24.8,15.1,30.66,South,169,1.0,2.0,66,0.00,,---,0.00,VWS V14.01,2013-01-18 01:28:00,
2013-01-17 18:33:00,23.9,13.9,30.68,South,169,0.0,0.0,65,0.00,,---,0.00,VWS V14.01,2013-01-18 01:33:00,
2013-01-17 18:38:00,23.4,13.7,30.68,South,170,0.0,1.0,66,0.00,,---,0.00,VWS V14.01,2013-01-18 01:38:00,
2013-01-17 18:43:00,23.1,13.8,30.68,South,170,2.0,2.0,67,0.00,,---,0.00,VWS V14.01,2013-01-18 01:43:00,
2013-01-17 18:48:00,23.2,13.9,30.68,South,170,1.0,2.0,67,0.00,,---,0.00,VWS V14.01,2013-01-18 01:48:00,
2013-01-17 18:53:00,23.6,14.6,30.68,South,170,2.0,4.0,68,0.00,,---,0.00,VWS V14.01,2013-01-18 01:53:00,
2013-01-17 18:58:00,23.4,13.7,30.68,South,171,4.0,6.0,66,0.00,,---,0.00,VWS V14.01,2013-01-18 01:58:00,
2013-01-17 19:03:00,22.2,14.6,30.70,South,171,2.0,5.0,72,0.00,,---,0.00,VWS V14.01,2013-01-18 02:03:00,
2013-01-17 19:08:00,21.3,12.4,30.67,South,171,1.0,5.0,68,0.00,,---,0.00,VWS V14.01,2013-01-18 02:08:00,
2013-01-17 19:13:00,21.1,12.5,30.68,South,171,0.0,5.0,69,0.00,,---,0.00,VWS V14.01,2013-01-18 02:13:00,
2013-01-17 19:18:00,21.3,12.7,30.69,South,176,4.0,9.0,69,0.00,,---,0.00,VWS V14.01,2013-01-18 02:18:00,
2013-01-17 19:23:00,21.5,12.6,30.67,South,181,4.0,10.0,68,0.00,,---,0.00,VWS V14.01,2013-01-18 02:23:00,
2013-01-17 19:28:00,21.3,12.1,30.68,South,183,5.0,8.0,67,0.00,,---,0.00,VWS V14.01,2013-01-18 02:28:00,
2013-01-17 19:33:00,21.2,12.3,30.68,South,184,4.0,8.0,68,0.00,,---,0.00,VWS V14.01,2013-01-18 02:33:00,
2013-01-17 19:38:00,21.1,12.5,30.68,South,184,6.0,10.0,69,0.00,,---,0.00,VWS V14.01,2013-01-18 02:38:00,
2013-01-17 19:43:00,21.3,12.4,30.68,South,184,0.0,5.0,68,0.00,,---,0.00,VWS V14.01,2013-01-18 02:43:00,
2013-01-17 19:48:00,21.7,13.1,30.66,South,183,0.0,4.0,69,0.00,,---,0.00,VWS V14.01,2013-01-18 02:48:00,
2013-01-17 19:53:00,22.2,13.3,30.66,South,184,1.0,5.0,68,0.00,,---,0.00,VWS V14.01,2013-01-18 02:53:00,
2013-01-17 19:58:00,22.1,12.8,30.66,South,184,0.0,1.0,67,0.00,,---,0.00,VWS V14.01,2013-01-18 02:58:00,
2013-01-17 20:03:00,21.8,12.5,30.66,South,184,0.0,3.0,67,0.00,,---,0.00,VWS V14.01,2013-01-18 03:03:00,
2013-01-17 20:08:00,21.3,12.1,30.65,South,184,5.0,6.0,67,0.00,,---,0.00,VWS V14.01,2013-01-18 03:08:00,
2013-01-17 20:13:00,21.0,12.1,30.64,South,184,0.0,1.0,68,0.00,,---,0.00,VWS V14.01,2013-01-18 03:13:00,
2013-01-17 20:18:00,20.6,11.7,30.64,South,184,1.0,2.0,68,0.00,,---,0.00,VWS V14.01,2013-01-18 03:18:00,
2013-01-17 20:23:00,20.2,11.4,30.67,South,184,1.0,1.0,68,0.00,,---,0.00,VWS V14.01,2013-01-18 03:23:00,
2013-01-17 20:28:00,19.8,11.3,30.67,South,184,2.0,4.0,69,0.00,,---,0.00,VWS V14.01,2013-01-18 03:28:00,
2013-01-17 20:33:00,19.7,11.2,30.67,South,184,1.0,5.0,69,0.00,,---,0.00,VWS V14.01,2013-01-18 03:33:00,
2013-01-17 20:38:00,19.6,11.1,30.67,South,184,1.0,6.0,69,0.00,,---,0.00,VWS V14.01,2013-01-18 03:38:00,
2013-01-17 20:43:00,19.3,10.8,30.67,South,184,0.0,4.0,69,0.00,,---,0.00,VWS V14.01,2013-01-18 03:43:00,
2013-01-17 20:48:00,19.3,10.8,30.67,South,184,0.0,4.0,69,0.00,,---,0.00,VWS V14.01,2013-01-18 03:48:00,
2013-01-17 20:53:00,19.3,10.8,30.67,South,184,3.0,4.0,69,0.00,,---,0.00,VWS V14.01,2013-01-18 03:53:00,
2013-01-17 20:59:00,19.6,11.1,30.67,South,184,5.0,5.0,69,0.00,,---,0.00,VWS V14.01,2013-01-18 03:59:00,
2013-01-17 21:04:00,19.7,10.9,30.67,South,184,0.0,4.0,68,0.00,,---,0.00,VWS V14.01,2013-01-18 04:04:00,
2013-01-17 21:09:00,19.5,10.7,30.59,South,184,0.0,4.0,68,0.00,,---,0.00,VWS V14.01,2013-01-18 04:09:00,
2013-01-17 21:14:00,19.2,10.4,30.61,South,184,4.0,4.0,68,0.00,,---,0.00,VWS V14.01,2013-01-18 04:14:00,
2013-01-17 21:19:00,18.6,9.8,30.61,South,184,2.0,6.0,68,0.00,,---,0.00,VWS V14.01,2013-01-18 04:19:00,
2013-01-17 21:24:00,18.3,9.9,30.61,South,184,0.0,5.0,69,0.00,,---,0.00,VWS V14.01,2013-01-18 04:24:00,
2013-01-17 21:29:00,18.2,10.1,30.61,South,184,0.0,2.0,70,0.00,,---,0.00,VWS V14.01,2013-01-18 04:29:00,
2013-01-17 21:34:00,18.5,10.7,30.61,South,184,0.0,3.0,71,0.00,,---,0.00,VWS V14.01,2013-01-18 04:34:00,
2013-01-17 21:39:00,18.8,10.6,30.61,South,184,0.0,1.0,70,0.00,,---,0.00,VWS V14.01,2013-01-18 04:39:00,
2013-01-17 21:44:00,19.2,10.7,30.61,South,184,0.0,4.0,69,0.00,,---,0.00,VWS V14.01,2013-01-18 04:44:00,
2013-01-17 21:49:00,19.3,10.8,30.60,South,184,0.0,5.0,69,0.00,,---,0.00,VWS V14.01,2013-01-18 04:49:00,
2013-01-17 21:54:00,19.4,10.9,30.60,South,184,0.0,1.0,69,0.00,,---,0.00,VWS V14.01,2013-01-18 04:54:00,
2013-01-17 21:59:00,19.6,10.8,30.58,South,184,0.0,2.0,68,0.00,,---,0.00,VWS V14.01,2013-01-18 04:59:00,
2013-01-17 22:00:00,19.6,10.8,30.58,South,184,0.0,2.0,68,0.00,,---,0.00,VWS V14.01,2013-01-18 05:00:00,
2013-01-17 22:01:00,19.6,10.8,30.58,South,184,0.0,2.0,68,0.00,,---,0.00,VWS V14.01,2013-01-18 05:01:00,
2013-01-17 22:06:00,19.5,10.7,30.58,South,184,0.0,0.0,68,0.00,,---,0.00,VWS V14.01,2013-01-18 05:06:00,
2013-01-17 22:11:00,19.3,10.5,30.52,South,184,0.0,0.0,68,0.00,,---,0.00,VWS V14.01,2013-01-18 05:11:00,
2013-01-17 22:16:00,19.2,10.4,30.52,South,184,0.0,1.0,68,0.00,,---,0.00,VWS V14.01,2013-01-18 05:16:00,
2013-01-17 22:21:00,19.5,10.7,30.52,South,184,0.0,1.0,68,0.00,,---,0.00,VWS V14.01,2013-01-18 05:21:00,
2013-01-17 22:26:00,19.7,10.9,30.52,South,184,0.0,3.0,68,0.00,,---,0.00,VWS V14.01,2013-01-18 05:26:00,
2013-01-17 22:31:00,19.5,10.3,30.52,South,184,0.0,2.0,67,0.00,,---,0.00,VWS V14.01,2013-01-18 05:31:00,
2013-01-17 22:36:00,19.1,10.0,30.52,South,184,0.0,1.0,67,0.00,,---,0.00,VWS V14.01,2013-01-18 05:36:00,
2013-01-17 22:41:00,18.8,10.0,30.52,South,184,0.0,1.0,68,0.00,,---,0.00,VWS V14.01,2013-01-18 05:41:00,
2013-01-17 22:47:00,18.5,9.7,30.52,South,184,0.0,0.0,68,0.00,,---,0.00,VWS V14.01,2013-01-18 05:47:00,